Year,Month,Day,Hour,Minute,Value (Times are PST for temperature in C)
2010,08,27,10,23,17.40
2010,08,27,10,24,17.40
2010,08,27,10,25,17.30
2010,08,27,10,26,17.30
2010,08,27,10,27,17.30
2010,08,27,10,28,17.30
2010,08,27,10,29,17.30
2010,08,27,10,30,17.20
2010,08,27,10,31,17.20
2010,08,27,10,32,17.20
2010,08,27,10,33,17.20
2010,08,27,10,34,17.20
2010,08,27,10,35,17.30
2010,08,27,10,36,17.30
2010,08,27,10,37,17.30
2010,08,27,10,38,17.40
2010,08,27,10,39,17.50
2010,08,27,10,40,17.50
2010,08,27,10,41,17.60
2010,08,27,10,42,17.60
2010,08,27,10,43,17.60
2010,08,27,10,44,17.60
2010,08,27,10,45,17.60
2010,08,27,10,46,17.50
2010,08,27,10,47,17.50
2010,08,27,10,48,17.50
2010,08,27,10,49,17.60
2010,08,27,10,50,17.70
2010,08,27,10,51,17.80
2010,08,27,10,52,17.90
2010,08,27,10,53,18.00
2010,08,27,10,54,18.10
2010,08,27,10,55,18.20
2010,08,27,10,56,18.20
2010,08,27,10,57,18.30
2010,08,27,10,58,18.30
2010,08,27,10,59,18.40
2010,08,27,11,00,18.50
2010,08,27,11,01,18.60
2010,08,27,11,02,18.70
2010,08,27,11,03,18.70
2010,08,27,11,04,18.70
2010,08,27,11,05,18.70
2010,08,27,11,06,18.70
2010,08,27,11,07,18.70
2010,08,27,11,08,18.70
2010,08,27,11,09,18.60
2010,08,27,11,10,18.70
2010,08,27,11,11,18.70
2010,08,27,11,12,18.70
2010,08,27,11,13,18.80
2010,08,27,11,14,18.80
2010,08,27,11,15,18.90
2010,08,27,11,16,19.00
2010,08,27,11,17,19.10
2010,08,27,11,18,19.20
2010,08,27,11,19,19.30
2010,08,27,11,20,19.40
2010,08,27,11,21,19.60
2010,08,27,11,22,19.70
2010,08,27,11,23,19.80
2010,08,27,11,24,19.70
2010,08,27,11,25,19.70
2010,08,27,11,26,19.70
2010,08,27,11,27,19.70
2010,08,27,11,28,19.70
2010,08,27,11,29,19.70
2010,08,27,11,30,19.70
2010,08,27,11,31,19.70
2010,08,27,11,32,19.70
2010,08,27,11,33,19.70
2010,08,27,11,34,19.70
2010,08,27,11,35,19.70
2010,08,27,11,36,19.70
2010,08,27,11,37,19.70
2010,08,27,11,38,19.70
2010,08,27,11,39,19.70
